STARLINK-34639, 64767

Orbit data source: Space-Track

STARLINK-34639, 64767 is a payload satellite owned by SpaceX/Seattle (US) in LEO that was launched on Tue, 08 Jul 2025 UTC via an FALCON 9 launch vehicle from the Air Force Eastern Test Range (AFETR). Payload-class satellites include a variety of spacecraft equipped with specific instruments for various scientific and technological missions. These include communications satellites like Starlink; space stations such as the ISS; scientific satellites like the Hubble; Earth observation satellites from companies like Planet Labs, Umbra, and HawkEye 360; GPS; miniature CubeSats for education and research; and military/defense satellites.

Loading next visibility...
Identifier
64767, 2025-147N
Orbit
LEO
Country
Flag of USUS
Related business
Manufacturer
SpaceX/Seattle
Mission
Operational spacecraft
Bus & Motor
STARLINK V2MO, Unknown motor
Mass
575 kg wet, ~530 kg dry
Launch date (UTC)
2025-07-08 (2 months ago)
Launch vehicle
FALCON 9
Launch site
Air Force Eastern Test Range (AFETR)
Object type
Payload
Rocket body
Debris
Shape & HBR
Unknown
Radar Cross Section
Large (>1 m²)

Expand to show TLE details & history
Last TLE update: 16 hours ago

TLE from 16 hours ago
0 STARLINK-34639
1 64767U 25147N   25243.19845751  .00069100  00000-0  17188-2 0  9998
2 64767  53.1618  48.4910 0001333  76.3573 283.7581 15.39673335  9528
Epoch: 2025-08-31T04:45Z
TLE epoch observation values (Epoch: 2025-08-31T04:45:46.728Z)
Latitude
0.00001°
Longitude
-2.57553°
Altitude
447.762 km
Speed
7.645 km/s
True Right ascension
03h 13m 57s
True Declination
0° 00' 00"
Sunlit
Object was in partial shadow at epoch
Visualization orbit readout
Latitude
Unknown
Longitude
Unknown
Altitude
Unknown
Speed
Unknown
Apparent Right ascension
Unknown
Apparent Declination
Unknown
Sunlit
N/A
Visualization observer readout
Local Sidereal Time
12:36:09
Azimuth
Unknown
Elevation
Unknown
Doppler factor
Unknown
Orbital elements
Apogee altitude
448.242 km
Perigee altitude
446.422 km
Semi-major axis
6,825.469 km
Eccentricity
0.00013
Inclination
53.1618°
RAAN
48.491°
Arg. of periapsis
76.3573°
True anomaly
283.74326°
Mean anomaly
283.7581°
Eccentric anomaly
283.75068°
Mean motion
3.84897 °/min
Orbital period
93.53 mins
BSTAR
0.0017188
Loading maneuver chart data...
Computing Atmospheric mass density...
Loading historical data...
Loading historical data...
Loading historical data...
Loading historical data...
Loading historical data...
Loading historical data...
Loading historical data...

Documentation

Showing up to 5 results
|